Regional Weather Roundup
Issued by NWS Albany, NY

Home | Current Version | Previous Version | Text Only | Print | Product List | Glossary On
Versions: 1 2 3 4 5 6 7 8 9 10 11 12 13 14 15 16 17 18 19 20 21 22 23 24 25 26 27 28 29 30 31 32 33 34 35 36 37 38 39 40 41 42 43 44 45 46 47 48 49 50
306
ASUS41 KALY 261710
RWRALY

NEW YORK STATE HOURLY WEATHER ROUNDUP
NATIONAL WEATHER SERVICE ALBANY NY
100 PM EDT FRI AUG 26 2016

NOTE: "FAIR" INDICATES FEW OR NO CLOUDS BELOW 12,000 FEET WITH NO
SIGNIFICANT WEATHER AND/OR NO OBSTRUCTIONS TO VISIBILITY.

NYZ032-033-038>043-046>054-057>066-NYZ062>081-082-084-261800-
EAST


CITY           SKY/WX    TMP DP  RH WIND       PRES   REMARKS
ALBANY         MOSUNNY   85  67  54 W12       29.99S
GLENS FALLS    MOSUNNY   85  67  54 NW9       29.98S
POUGHKEEPSIE   MOSUNNY   86  70  58 N12G18    29.97S HX  90
NEWBURGH       PTSUNNY   84  72  65 N12G18    30.01S
MONTGOMERY     PTSUNNY   85  71  63 NW9       30.00S HX  90
WHITE PLAINS   MOSUNNY   85  70  60 NW9       29.99S
ISLIP          PTSUNNY   91  71  51 W7        29.96F HX  97
NEW YORK CITY  MOSUNNY   89  70  53 NW17      29.97S HX  94
CENTRAL PARK     N/A     90  68  48 MISG        N/A  HX  93
$$

NYZ005>009-017-018-044>046-055-056-261800-
CENTRAL


CITY           SKY/WX    TMP DP  RH WIND       PRES   REMARKS
FULTON         SUNNY     80  61  52 NW7       30.07S
SYRACUSE       MOSUNNY   82  58  43 NW13      30.05S
ROME           SUNNY     80  61  52 W13G21    30.05S
ELMIRA         MOSUNNY   82  64  54 VRB7      30.08F
BINGHAMTON     SUNNY     77  63  61 NW10      30.11S
MONTICELLO     MOSUNNY   79  68  69 NW13G20   30.08S
$$

NYZ026>034-041>043-087-261800-
NORTH


CITY           SKY/WX    TMP DP  RH WIND       PRES   REMARKS
WATERTOWN      SUNNY     83  55  38 W9        30.04S
FORT DRUM      NOT AVBL
MASSENA        SUNNY     82  59  45 W10       30.02R
SARANAC LAKE   SUNNY     75  58  55 W9G18     30.04F
PLATTSBURGH    PTSUNNY   85  64  49 NW6       29.96S
$$

NYZ001>004-010>016-019>021-085-261800-
WEST


CITY           SKY/WX    TMP DP  RH WIND       PRES   REMARKS
NIAGARA FALLS  PTSUNNY   82  67  60 W9        30.09S
BUFFALO        MOSUNNY   79  68  69 W10       30.09S
DUNKIRK        SUNNY     77  70  79 W10       30.12S
JAMESTOWN      SUNNY     77  63  61 W10       30.16F
WELLSVILLE     MOSUNNY   79  63  57 VRB6      30.18S
ROCHESTER      MOSUNNY   82  64  54 NW10      30.08S
PENN YAN       MOSUNNY   81  64  56 W9        30.10F
$$

             KEY
       WCI = WIND CHILL INDEX
       VSB = VISIBILITY
       HX  = HEAT INDEX
$$




USA.gov is the U.S. government's official web portal to all federal, state and local government web resources and services.